Date String (YYYY-MM-DD hh:mm:ss) UTC,Instrument flags,absolute air pressure of the measurement (hPa),sample flow rate (lpm),inlet stack bypass flow (lpm),air temperature of the measurement (°C),ambient temperature measured by the external sensor (°C),aerosol sample conditioner tube jacket temperature (°C),OPC LED temperature (°C),internal box temperature (°C),relative humidity of the measurement (%),span deviation,mass concentration of particles derived from Lorenz-Mie calculation of OPC scattering (μg/m³),mass concentration of particles derived from Lorenz-Mie calculation of OPC scattering (μg/m³),mass concentration of particles derived from Lorenz-Mie calculation of OPC scattering (μg/m³)
DateTimeUTC,F1_M11,P_M11,Q1_M11,Q2_M11,T1_M11,T2_M11,T3_M11,T4_M11,T5_M11,U1_M11,ZSPAN_M11,X0_M11,X2_M11,X1_M11
2023-12-01 23:00:00,SystemResetWarning,0819.7,5.00,000.00,021.5,020.7,000.0,029.7,022.9,15.3,0002.4,0024.75,0015.19,0013.91
2023-12-01 23:01:00,SystemResetWarning,0819.7,4.99,000.00,021.6,020.7,000.0,029.7,023.0,15.3,0002.4,0025.10,0015.14,0013.88
2023-12-01 23:02:00,SystemResetWarning,0819.6,5.00,000.00,021.6,020.7,000.0,029.7,022.9,15.4,0002.1,0025.23,0015.09,0013.83
2023-12-01 23:03:00,SystemResetWarning,0819.7,5.00,000.00,021.6,020.7,000.0,029.7,022.9,15.4,0001.2,0024.20,0015.07,0013.80
2023-12-01 23:04:00,SystemResetWarning,0819.6,5.00,000.00,021.6,020.7,000.0,029.7,023.0,15.4,0001.0,0023.74,0015.09,0013.82
2023-12-01 23:05:00,SystemResetWarning,0819.6,5.00,000.00,021.6,020.7,000.0,029.7,023.0,15.4,0001.2,0022.61,0015.08,0013.81
2023-12-01 23:06:00,SystemResetWarning,0819.6,5.00,000.00,021.6,020.7,000.0,029.7,022.9,15.4,0001.4,0022.77,0015.01,0013.76
2023-12-01 23:07:00,SystemResetWarning,0819.7,5.00,000.00,021.6,020.7,000.0,029.8,023.0,15.5,0001.6,0022.96,0014.97,0013.70
2023-12-01 23:08:00,SystemResetWarning,0819.6,5.00,000.00,021.6,020.7,000.0,029.8,023.0,15.5,0001.5,0022.62,0014.93,0013.66
2023-12-01 23:09:00,SystemResetWarning,0819.6,5.00,000.00,021.6,020.7,000.0,029.8,023.0,15.6,0001.4,0022.65,0014.89,0013.62
2023-12-01 23:10:00,SystemResetWarning,0819.5,5.00,000.00,021.6,020.7,000.0,029.8,023.0,15.5,0001.4,0022.66,0014.85,0013.58
2023-12-01 23:11:00,SystemResetWarning,0819.6,5.00,000.00,021.6,020.7,000.0,029.8,023.0,15.6,0001.3,0022.30,0014.78,0013.55
2023-12-01 23:12:00,SystemResetWarning,0819.5,5.00,000.00,021.6,020.7,000.0,029.8,023.0,15.6,0001.1,0022.82,0014.78,0013.50
2023-12-01 23:13:00,SystemResetWarning,0819.5,5.00,000.00,021.6,020.7,000.0,029.8,023.0,15.6,0000.5,0023.01,0014.73,0013.46
2023-12-01 23:14:00,SystemResetWarning,0819.5,5.00,000.00,021.6,020.7,000.0,029.8,023.0,15.5,0000.7,0023.29,0014.65,0013.43
2023-12-01 23:15:00,SystemResetWarning,0819.5,5.00,000.00,021.6,020.7,000.0,029.8,023.0,15.4,0000.9,0023.90,0014.56,0013.38
2023-12-01 23:16:00,SystemResetWarning,0819.5,4.99,000.00,021.6,020.7,000.0,029.8,023.0,15.3,0000.8,0023.88,0014.51,0013.33
2023-12-01 23:17:00,SystemResetWarning,0819.4,4.99,000.00,021.6,020.7,000.0,029.8,023.0,15.3,0001.1,0024.59,0014.46,0013.29
2023-12-01 23:18:00,SystemResetWarning,0819.5,5.00,000.00,021.6,020.7,000.0,029.8,023.0,15.4,0001.1,0024.52,0014.40,0013.26
2023-12-01 23:19:00,SystemResetWarning,0819.5,5.00,000.00,021.6,020.7,000.0,029.8,023.0,15.4,0001.1,0024.63,0014.34,0013.24
2023-12-01 23:20:00,SystemResetWarning,0819.5,5.00,000.00,021.6,020.7,000.0,029.8,023.0,15.4,0001.1,0024.59,0014.28,0013.20
2023-12-01 23:21:00,SystemResetWarning,0819.6,5.00,000.00,021.6,020.7,000.0,029.8,023.0,15.4,0000.8,0023.88,0014.15,0013.15
2023-12-01 23:22:00,SystemResetWarning,0819.6,5.00,000.00,021.6,020.7,000.0,029.9,023.0,15.4,0001.2,0023.54,0014.10,0013.09
2023-12-01 23:23:00,SystemResetWarning,0819.7,5.01,000.00,021.6,020.7,000.0,029.9,023.0,15.4,0001.2,0022.67,0013.98,0013.02
2023-12-01 23:24:00,SystemResetWarning,0819.5,5.00,000.00,021.6,020.7,000.0,029.9,023.0,15.4,0001.7,0021.97,0013.92,0012.95
2023-12-01 23:25:00,SystemResetWarning,0819.5,4.99,000.00,021.6,020.8,000.0,029.9,023.0,15.3,0001.7,0022.11,0013.87,0012.90
2023-12-01 23:26:00,SystemResetWarning,0819.5,4.99,000.00,021.7,020.8,000.0,029.9,023.0,15.3,0001.6,0022.09,0013.83,0012.87
2023-12-01 23:27:00,SystemResetWarning,0819.5,5.00,000.00,021.7,020.8,000.0,029.9,023.1,15.1,0001.9,0021.77,0013.74,0012.81
2023-12-01 23:28:00,SystemResetWarning,0819.5,5.00,000.00,021.7,020.8,000.0,029.9,023.1,15.1,0001.5,0021.71,0013.70,0012.77
2023-12-01 23:29:00,SystemResetWarning,0819.5,5.00,000.00,021.7,020.8,000.0,029.9,023.1,15.0,0001.3,0021.33,0013.70,0012.76
2023-12-01 23:30:00,SystemResetWarning,0819.6,5.00,000.00,021.7,020.8,000.0,029.9,023.0,15.0,0001.2,0021.16,0013.66,0012.74
2023-12-01 23:31:00,SystemResetWarning,0819.8,5.00,000.00,021.7,020.9,000.0,029.9,023.1,15.2,0000.9,0021.19,0013.64,0012.74
2023-12-01 23:32:00,SystemResetWarning,0819.7,5.00,000.00,021.7,020.9,000.0,029.9,023.1,15.2,0000.9,0021.56,0013.65,0012.73
2023-12-01 23:33:00,SystemResetWarning,0820.0,5.00,000.00,021.7,020.9,000.0,029.9,023.0,15.3,0000.3,0022.52,0013.70,0012.74
2023-12-01 23:34:00,SystemResetWarning,0820.1,5.00,000.00,021.7,020.9,000.0,029.9,023.0,15.3,0000.3,0023.81,0013.72,0012.79
2023-12-01 23:35:00,SystemResetWarning,0820.2,5.00,000.00,021.7,020.9,000.0,029.9,023.1,15.4,0000.3,0024.23,0013.77,0012.80
2023-12-01 23:36:00,SystemResetWarning,0820.2,5.00,000.00,021.7,020.8,000.0,029.9,023.1,15.4,0000.4,0024.49,0013.79,0012.80
2023-12-01 23:37:00,SystemResetWarning,0819.9,5.00,000.00,021.7,020.8,000.0,029.9,023.1,15.4,0000.9,0024.21,0013.80,0012.81
2023-12-01 23:38:00,SystemResetWarning,0819.7,5.00,000.00,021.7,020.8,000.0,029.9,023.1,15.3,0000.7,0024.30,0013.87,0012.84
2023-12-01 23:39:00,SystemResetWarning,0819.7,4.99,000.00,021.7,020.9,000.0,029.9,023.1,15.2,0000.9,0024.23,0013.93,0012.85
2023-12-01 23:40:00,SystemResetWarning,0819.6,4.99,000.00,021.7,020.8,000.0,030.0,023.1,15.1,0000.8,0024.70,0013.94,0012.86
2023-12-01 23:41:00,SystemResetWarning,0819.8,5.00,000.00,021.7,020.8,000.0,030.0,023.1,15.1,0001.3,0024.56,0013.97,0012.87
2023-12-01 23:42:00,SystemResetWarning,0819.8,4.99,000.00,021.7,020.8,000.0,030.0,023.1,15.0,0001.4,0024.55,0014.02,0012.90
2023-12-01 23:43:00,SystemResetWarning,0819.8,5.00,000.00,021.7,020.8,000.0,030.0,023.1,15.0,0001.3,0024.26,0014.12,0012.96
2023-12-01 23:44:00,SystemResetWarning,0819.8,5.01,000.00,021.7,020.8,000.0,030.0,023.1,15.0,0001.6,0024.11,0014.19,0013.05
2023-12-01 23:45:00,SystemResetWarning,0819.8,5.00,000.00,021.7,020.8,000.0,030.0,023.1,15.1,0001.5,0023.16,0014.25,0013.11
2023-12-01 23:46:00,SystemResetWarning,0819.8,5.00,000.00,021.7,020.8,000.0,030.0,023.1,15.2,0001.1,0022.84,0014.33,0013.16
2023-12-01 23:47:00,SystemResetWarning,0819.8,5.00,000.00,021.7,020.8,000.0,030.0,023.1,15.2,0001.0,0023.40,0014.36,0013.20
2023-12-01 23:48:00,SystemResetWarning,0819.9,5.00,000.00,021.7,020.8,000.0,030.0,023.1,15.3,0000.7,0022.60,0014.36,0013.24
2023-12-01 23:49:00,SystemResetWarning,0819.9,5.00,000.00,021.7,020.7,000.0,030.0,023.1,15.3,0000.6,0022.72,0014.46,0013.33
2023-12-01 23:50:00,SystemResetWarning,0820.0,5.00,000.00,021.7,020.7,000.0,030.0,023.0,15.3,0001.4,0022.86,0014.60,0013.49
2023-12-01 23:51:00,SystemResetWarning,0819.8,5.00,000.00,021.7,020.7,000.0,030.0,023.0,15.3,0001.6,0022.70,0014.77,0013.65
2023-12-01 23:52:00,SystemResetWarning,0819.8,5.00,000.00,021.7,020.8,000.0,030.0,023.1,15.3,0001.8,0023.16,0014.91,0013.78
2023-12-01 23:53:00,SystemResetWarning,0820.2,5.00,000.00,021.7,020.8,000.0,030.0,023.1,15.3,0001.9,0024.70,0015.04,0013.88
2023-12-01 23:54:00,SystemResetWarning,0820.0,5.00,000.00,021.7,020.8,000.0,030.0,023.1,15.2,0002.5,0024.82,0015.10,0013.95
2023-12-01 23:55:00,SystemResetWarning,0820.2,5.00,000.00,021.7,020.8,000.0,030.0,023.1,15.2,0002.7,0025.13,0015.13,0013.99
2023-12-01 23:56:00,SystemResetWarning,0820.2,5.00,000.00,021.7,020.8,000.0,030.0,023.1,15.2,0002.4,0024.95,0015.17,0014.04
2023-12-01 23:57:00,SystemResetWarning,0820.3,5.00,000.00,021.7,020.8,000.0,030.0,023.1,15.2,0002.5,0026.16,0015.28,0014.13
2023-12-01 23:58:00,SystemResetWarning,0820.3,5.00,000.00,021.7,020.8,000.0,030.0,023.1,15.2,0002.7,0025.63,0015.45,0014.27
2023-12-01 23:59:00,SystemResetWarning,0819.9,4.99,000.00,021.7,020.8,000.0,030.0,023.1,15.3,0003.0,0026.15,0015.68,0014.45
